Wind_Speed
11 14 11 8 5 9 5 4 9 13 10 8 9 7 9 10 7 6 4 4 3 4 7 10 10 8 7 8 11 12 11 10 10 10 8 7 7 5 3 4 5 3 1 1
11 12 11 7 6 5 2 2 3 9 10 10 8 9 8 4 4 5 4 2 2 5 6 8 10 8 6 6 8 10 10 10 10 9 5 4 4 4 4 4 5 5 2 2
13 12 11 5 2 1 5 4 6 6 9 11 6 3 3 6 3 3 5 3 2 2 5 9 9 10 9 8 9 10 10 10 9 6 4 5 5 5 6 6 6 3 2 3
13 9 10 8 6 4 7 8 10 5 6 8 5 3 0 5 6 6 8 8 3 2 5 8 8 9 10 8 9 10 11 9 8 7 7 5 6 5 3 1 2 8 8 5
13 8 9 9 9 8 10 11 13 3 6 6 5 3 3 5 5 6 5 8 7 5 6 7 8 9 10 10 11 11 10 9 8 8 7 5 5 5 2 4 7 8 7 6
13 10 8 12 12 8 10 14 4 5 9 8 7 7 7 8 10 10 8 5 11 6 9 8 8 8 9 11 12 13 12 10 8 8 7 8 7 3 3 5 6 7 8 8
14 13 15 14 14 12 12 8 9 7 5 5 6 7 3 4 6 9 12 6 1 4 8 8 7 9 11 10 10 11 12 10 9 10 9 9 8 6 6 6 5 6 8 8
12 13 18 18 16 14 11 8 9 9 4 5 8 6 3 3 3 6 9 8 5 2 16 7 5 6 8 10 10 10 11 10 10 8 9 10 7 7 5 5 6 6 5 6
17 19 22 22 15 12 7 9 13 12 12 10 5 3 5 7 5 6 6 7 7 3 7 6 6 7 9 9 10 10 12 13 12 9 8 8 8 9 9 6 5 5 4 3
21 21 24 23 15 13 13 12 13 15 17 17 14 9 5 8 6 1 4 5 6 3 1 4 7 7 7 7 8 7 10 12 12 10 8 8 8 9 7 6 7 6 5 5
20 22 26 26 20 15 18 16 14 13 14 18 17 11 10 8 5 7 4 2 1 2 1 3 3 4 6 7 9 9 9 11 12 10 9 9 7 7 6 7 7 7 7 6
21 24 27 26 23 20 22 19 16 13 13 16 17 16 15 13 10 6 9 6 5 5 5 5 4 2 3 5 9 11 13 14 13 12 12 10 10 8 6 7 6 5 4 7
18 25 27 26 25 23 25 24 21 19 19 16 16 14 19 19 17 14 14 12 11 11 9 8 8 6 4 3 5 6 8 9 10 11 11 10 9 8 7 6 7 6 6 8
17 17 17 21 24 24 25 25 24 24 23 23 20 16 18 23 23 21 18 14 15 12 11 10 8 9 11 9 8 7 6 6 7 7 9 10 9 8 8 8 7 7 8 10
17 16 17 17 20 18 20 24 25 25 29 31 29 22 20 19 21 25 25 19 24 20 18 14 15 14 14 14 13 12 10 8 8 8 9 10 10 10 11 10 11 12 14 16
16 16 17 18 19 19 20 21 23 28 32 32 32 31 26 22 20 23 22 23 24 26 26 22 19 17 18 18 16 13 12 12 10 9 11 11 10 10 11 12 14 15 17 20
19 18 16 17 19 20 20 18 21 24 23 26 28 32 31 30 27 26 25 27 29 32 32 29 25 21 19 19 19 17 16 15 14 15 16 16 17 16 15 16 16 18 21 24
20 20 21 20 19 20 19 19 20 22 24 24 23 27 34 33 33 30 30 32 31 33 34 32 30 29 25 22 21 22 21 18 17 18 19 19 20 21 21 19 20 23 26 28
17 20 21 21 20 20 19 18 19 20 21 23 24 26 31 35 35 33 32 33 34 35 39 47 38 36 31 29 26 24 25 25 22 22 22 22 21 20 20 21 23 26 28 30
16 18 19 20 21 22 21 22 22 23 24 24 27 30 33 36 40 39 38 36 38 41 43 54 44 39 36 35 34 30 29 28 30 27 25 25 25 27 29 30 33 34 34 36
12 15 18 20 21 22 22 23 24 25 25 26 29 31 32 35 39 42 43 43 45 43 47 56 50 45 38 37 36 36 31 32 32 32 29 30 33 35 38 38 39 40 41 44
11 12 14 16 18 21 21 23 24 25 26 29 31 31 32 34 36 39 44 49 49 51 54 44 32 19 37 35 27 31 35 36 38 38 40 42 42 41 41 44 49 48 47 48
12 13 14 14 16 19 20 22 22 24 26 29 31 29 28 30 32 30 34 41 45 50 50 48 36 37 27 29 20 24 38 39 44 47 46 47 47 49 50 50 48 51 51 51
14 14 14 15 18 19 20 20 22 24 26 26 25 27 20 23 23 25 30 33 36 39 37 38 40 32 30 20 22 26 21 30 35 35 46 52 49 51 55 52 46 47 46 46
16 15 15 16 19 19 19 19 21 22 21 23 23 18 21 21 22 26 27 26 28 29 31 31 30 28 30 28 28 25 34 36 37 41 40 42 49 53 52 46 45 45 45 44
16 15 16 17 19 17 18 18 19 16 20 17 14 13 14 18 19 20 21 23 25 27 28 28 28 33 29 26 22 30 27 28 28 23 22 21 21 25 32 35 38 41 43 43
Wind_Direction
174 180 179 171 157 123 136 96 74 76 65 83 59 83 127 110 96 87 80 126 149 169 165 155 165 169 175 178 172 174 169 176 179 172 170 188 198 207 251 270 261 235 222 40
195 192 195 193 100 146 143 347 48 86 60 82 63 67 60 90 110 124 117 117 153 182 167 174 166 169 168 190 190 186 177 176 183 187 195 202 229 254 267 285 265 266 220 209
202 210 200 197 135 259 244 303 339 136 100 95 106 87 350 351 46 175 177 187 199 179 180 179 163 161 175 180 192 188 177 174 185 191 202 219 253 263 246 254 300 349 98 94
213 223 215 203 230 300 286 271 328 320 109 89 119 111 218 283 307 296 218 205 215 193 180 171 162 154 165 183 190 181 176 182 206 204 194 219 258 251 234 309 53 90 90 75
221 214 225 219 242 266 266 284 300 297 122 103 95 135 302 299 337 314 288 227 199 189 165 162 151 160 164 173 178 174 184 190 206 212 212 220 252 259 269 122 95 87 78 72
217 200 200 213 234 246 248 265 234 188 130 129 113 106 93 73 46 26 22 279 232 186 176 164 152 160 172 184 189 183 182 190 213 231 221 212 209 206 140 135 110 110 96 92
207 188 192 204 202 215 231 240 192 206 175 136 143 153 127 33 29 31 30 29 128 146 169 172 173 168 170 176 188 201 198 193 215 225 197 205 195 167 145 134 118 111 112 101
206 195 194 197 205 214 232 239 217 224 246 186 112 174 217 278 297 13 35 17 349 42 156 153 173 185 187 184 188 210 210 194 200 208 181 181 166 147 148 126 128 131 125 142
195 195 200 203 209 208 215 234 224 236 243 230 222 238 281 228 290 311 9 18 357 261 149 184 180 175 171 185 191 206 206 178 170 177 167 158 148 133 135 135 125 131 166 179
206 201 203 211 220 210 223 231 235 239 252 248 238 266 231 231 262 200 340 356 358 332 257 185 200 191 177 178 191 201 212 195 177 187 187 181 169 144 135 143 147 174 202 223
215 215 211 216 224 223 227 233 231 239 251 258 258 243 213 227 243 215 220 46 28 269 47 166 176 212 176 178 185 186 209 214 203 197 205 215 210 193 176 168 175 191 213 244
212 213 219 214 222 220 225 234 244 248 253 258 256 237 231 220 199 242 249 253 308 228 245 270 279 203 149 169 187 185 202 213 215 214 217 225 233 231 211 178 171 197 243 287
209 215 223 225 230 232 233 243 258 266 274 256 264 248 236 246 250 237 250 276 265 274 237 233 260 246 196 147 164 182 201 209 207 211 216 218 219 215 205 196 183 212 258 282
211 218 227 240 239 241 239 242 249 258 263 262 258 239 255 247 249 257 257 268 244 247 238 230 230 228 228 222 205 186 189 182 186 192 197 193 195 196 198 215 235 245 277 293
212 219 220 224 229 234 239 243 250 252 250 255 258 249 243 255 250 251 253 257 235 241 241 249 249 245 243 233 226 225 215 208 198 197 205 203 190 186 202 225 248 271 284 291
250 247 246 254 257 259 258 259 268 262 261 263 264 264 252 247 241 248 249 247 233 244 245 262 231 235 244 250 249 245 238 229 223 224 228 227 233 233 233 242 255 273 285 291
271 273 271 267 268 268 259 271 266 269 270 264 263 257 250 246 242 240 237 239 237 232 232 242 235 224 230 243 253 255 251 245 234 228 234 235 239 243 251 261 271 279 286 292
270 271 274 275 275 269 280 277 266 265 266 268 260 253 249 246 244 245 242 237 236 230 222 223 220 218 222 235 250 257 255 252 244 245 244 243 249 254 259 259 263 268 273 277
263 267 271 271 275 277 277 278 270 263 262 262 262 258 252 249 242 241 243 243 238 236 231 222 209 213 215 228 237 247 258 260 257 252 251 247 253 261 268 279 279 277 277 275
259 260 262 268 270 275 276 278 277 273 271 268 262 259 256 251 243 240 242 241 239 242 238 248 215 207 211 221 227 235 244 254 258 257 259 264 268 272 274 277 280 281 282 283
270 269 269 270 273 276 276 276 277 275 276 270 268 267 265 257 251 244 243 245 248 247 250 247 256 211 209 221 226 229 236 246 248 252 253 261 271 272 271 272 276 279 279 280
277 280 278 276 277 276 276 273 272 274 274 273 272 269 267 264 260 253 249 249 254 257 259 267 227 284 203 220 226 237 232 241 245 248 247 253 260 268 273 276 273 272 274 278
284 283 285 288 286 283 280 279 279 278 277 277 279 275 270 266 263 263 262 259 259 264 275 284 292 297 301 311 232 275 240 238 245 247 248 257 259 258 264 273 274 273 274 278
283 286 291 290 289 292 289 285 285 285 283 283 278 277 270 262 266 267 269 274 275 274 278 281 281 290 292 274 279 265 253 255 247 270 260 255 261 268 268 274 270 277 277 280
278 288 291 288 293 294 294 290 291 288 290 289 280 267 270 271 259 257 266 275 276 274 276 271 276 278 282 276 276 258 245 249 258 267 264 264 265 261 265 266 269 278 279 283
290 291 288 292 293 298 295 295 291 293 301 292 266 243 249 250 241 248 261 270 274 279 278 276 277 276 284 283 280 263 247 268 272 280 267 264 265 264 267 274 279 277 279 281
Height
5918 5921 5922 5923 5924 5922 5923 5924 5924 5924 5925 5925 5923 5920 5919 5918 5918 5918 5917 5917 5917 5918 5919 5921 5923 5926 5927 5928 5928 5930 5931 5932 5933 5934 5935 5935 5935 5935 5935 5935 5935 5935 5937 5938
5917 5918 5920 5922 5921 5922 5923 5925 5926 5925 5924 5924 5924 5922 5920 5920 5920 5920 5919 5919 5919 5920 5921 5921 5922 5924 5926 5928 5929 5930 5931 5932 5933 5934 5935 5935 5935 5936 5936 5936 5936 5937 5938 5939
5915 5917 5919 5919 5920 5922 5924 5925 5926 5926 5924 5923 5924 5923 5922 5920 5920 5920 5920 5920 5920 5921 5922 5922 5923 5923 5925 5927 5929 5930 5931 5931 5932 5933 5934 5934 5934 5935 5936 5936 5937 5937 5938 5940
5913 5915 5916 5918 5920 5922 5923 5925 5926 5927 5925 5923 5923 5924 5922 5921 5920 5919 5919 5920 5920 5922 5922 5922 5922 5924 5925 5927 5929 5930 5931 5932 5932 5933 5934 5934 5934 5935 5937 5938 5938 5938 5939 5940
5913 5914 5914 5917 5919 5921 5922 5923 5924 5925 5924 5925 5924 5925 5923 5922 5921 5919 5918 5918 5920 5921 5922 5922 5922 5923 5925 5926 5929 5930 5931 5931 5931 5932 5933 5934 5934 5935 5937 5937 5938 5939 5940 5940
5911 5913 5914 5916 5917 5919 5921 5921 5922 5924 5924 5925 5925 5926 5925 5924 5922 5920 5919 5918 5919 5921 5921 5922 5923 5924 5926 5927 5928 5929 5929 5930 5930 5931 5933 5933 5934 5935 5937 5938 5938 5939 5939 5938
5907 5911 5913 5915 5916 5918 5919 5920 5922 5924 5924 5925 5926 5927 5926 5926 5924 5922 5920 5919 5920 5919 5922 5923 5924 5925 5926 5927 5928 5929 5928 5928 5930 5930 5931 5932 5934 5936 5937 5938 5938 5939 5938 5938
5905 5908 5910 5912 5914 5915 5917 5920 5922 5923 5924 5925 5925 5927 5928 5926 5925 5923 5922 5921 5920 5920 5921 5923 5925 5926 5927 5927 5927 5928 5927 5928 5929 5930 5930 5932 5934 5935 5936 5937 5937 5938 5938 5937
5901 5904 5905 5907 5911 5915 5917 5918 5921 5921 5922 5925 5926 5928 5928 5926 5925 5924 5923 5921 5920 5920 5922 5923 5924 5925 5926 5927 5927 5927 5926 5927 5928 5929 5930 5931 5932 5933 5935 5936 5936 5936 5936 5936
5899 5901 5903 5905 5910 5913 5915 5917 5919 5920 5920 5922 5924 5926 5927 5926 5925 5923 5923 5922 5921 5920 5921 5922 5923 5924 5924 5924 5926 5926 5927 5927 5927 5928 5929 5930 5932 5933 5934 5935 5936 5936 5936 5935
5898 5901 5903 5905 5908 5910 5912 5914 5916 5918 5918 5919 5921 5924 5924 5924 5924 5923 5922 5921 5921 5922 5922 5922 5923 5923 5922 5922 5924 5925 5927 5928 5927 5927 5928 5928 5929 5931 5933 5933 5934 5934 5934 5933
5896 5898 5900 5903 5905 5907 5909 5910 5912 5914 5916 5916 5916 5921 5920 5921 5922 5924 5922 5921 5920 5919 5920 5921 5922 5922 5922 5922 5922 5923 5925 5926 5927 5926 5926 5926 5927 5929 5931 5931 5932 5932 5932 5931
5895 5897 5898 5901 5904 5905 5907 5908 5910 5912 5912 5913 5914 5917 5916 5917 5918 5920 5922 5920 5920 5920 5918 5918 5920 5921 5921 5921 5920 5921 5923 5925 5925 5925 5925 5925 5926 5926 5929 5930 5930 5930 5930 5929
5892 5893 5896 5899 5901 5902 5903 5904 5905 5906 5907 5906 5908 5911 5912 5914 5915 5917 5918 5919 5918 5918 5917 5917 5916 5917 5919 5919 5919 5919 5921 5922 5923 5924 5925 5925 5925 5926 5927 5928 5928 5929 5928 5926
5888 5889 5891 5893 5894 5896 5897 5898 5898 5898 5898 5899 5900 5903 5907 5907 5908 5910 5911 5913 5914 5915 5915 5915 5915 5915 5915 5916 5916 5916 5917 5918 5919 5921 5922 5923 5923 5923 5924 5925 5925 5925 5926 5924
5882 5884 5886 5888 5889 5890 5891 5892 5892 5891 5892 5892 5893 5895 5899 5899 5902 5902 5905 5907 5909 5908 5910 5911 5910 5911 5912 5913 5914 5915 5915 5915 5916 5918 5919 5920 5921 5921 5921 5921 5921 5921 5921 5920
5876 5878 5879 5881 5882 5883 5885 5887 5885 5885 5885 5885 5885 5887 5889 5890 5893 5896 5898 5901 5903 5903 5903 5905 5906 5907 5908 5908 5909 5911 5911 5913 5913 5913 5914 5915 5915 5916 5917 5918 5919 5919 5918 5917
5870 5871 5872 5873 5875 5875 5877 5877 5877 5878 5877 5877 5878 5878 5878 5882 5884 5886 5887 5888 5891 5892 5894 5895 5898 5900 5902 5904 5906 5907 5906 5906 5908 5910 5910 5911 5912 5912 5912 5913 5914 5913 5912 5910
5864 5864 5865 5866 5867 5869 5869 5870 5870 5870 5871 5870 5870 5869 5868 5872 5874 5877 5877 5879 5883 5884 5884 5879 5881 5889 5892 5896 5899 5901 5903 5904 5904 5904 5905 5906 5907 5909 5909 5908 5907 5906 5905 5903
5860 5860 5861 5861 5861 5861 5862 5862 5862 5861 5862 5862 5861 5859 5859 5859 5863 5867 5868 5868 5871 5873 5873 5858 5869 5878 5881 5886 5890 5894 5896 5898 5899 5900 5901 5901 5902 5903 5903 5901 5899 5897 5896 5893
5856 5855 5856 5855 5856 5855 5855 5855 5854 5855 5857 5852 5850 5849 5848 5849 5852 5856 5859 5858 5859 5859 5856 5855 5855 5862 5865 5877 5880 5884 5887 5890 5892 5894 5894 5895 5896 5896 5895 5893 5892 5891 5889 5885
5852 5852 5851 5850 5850 5849 5848 5848 5848 5846 5845 5843 5841 5840 5838 5837 5840 5843 5845 5847 5849 5848 5844 5846 5851 5839 5852 5862 5869 5875 5876 5882 5884 5885 5886 5886 5886 5887 5886 5883 5883 5882 5881 5878
5847 5847 5847 5846 5845 5842 5841 5840 5839 5838 5837 5835 5832 5830 5830 5830 5830 5832 5834 5836 5839 5840 5840 5840 5846 5853 5852 5850 5859 5863 5864 5867 5871 5871 5872 5874 5874 5875 5874 5872 5871 5870 5870 5869
5842 5842 5841 5841 5839 5837 5835 5833 5832 5831 5828 5827 5824 5824 5824 5824 5824 5824 5824 5825 5827 5829 5831 5834 5843 5845 5845 5851 5852 5854 5852 5855 5858 5858 5857 5860 5861 5861 5862 5861 5860 5860 5858 5858
5837 5837 5836 5835 5833 5831 5829 5827 5825 5823 5821 5819 5817 5817 5818 5818 5818 5819 5819 5820 5822 5825 5827 5831 5834 5836 5840 5842 5844 5842 5842 5845 5847 5848 5848 5847 5848 5848 5849 5850 5850 5849 5848 5847
5832 5831 5830 5829 5827 5825 5823 5821 5820 5818 5815 5812 5811 5811 5812 5812 5813 5815 5816 5818 5819 5821 5822 5824 5825 5827 5829 5830 5830 5826 5829 5834 5835 5835 5836 5836 5836 5838 5841 5841 5840 5839 5838 5836